COSMOS 1823 DEB, 18802

Orbit data source: Space-Track

COSMOS 1823 DEB, 18802 is space debris in LEO originally from a launch on Fri, 20 Feb 1987 UTC launched from the Plesetsk Missile And Space Complex (PKMTR). Debris objects in space refer to the collection of defunct objects orbiting the Earth. Examples of debris include non-operational satellites, rocket bodies, and fragments generated from explosions, collisions, or faulty payload assembly.

Loading next visibility...
Identifier
18802, 1987-020AN
Orbit
LEO
Country
Flag of CISCIS
Related business
Manufacturer
Unknown
Mission
Spacecraft
Bus & Motor
Unknown
Mass
Unknown
Launch date (UTC)
1987-02-20 (39 years ago)
Launch vehicle
Unknown
Launch site
Plesetsk Missile And Space Complex (PKMTR)
Object type
Payload
Rocket body
Debris
Shape & HBR
Unknown shape, 0.1 m
Radar Cross Section
Medium (>0.1 m² and <1 m²)

Expand to show TLE details & history
Last TLE update: 3 days ago

TLE from 3 days ago
0 COSMOS 1823 DEB
1 18802U 87020AN  26170.77903287  .00000054  00000-0  58656-3 0  9997
2 18802  73.5918  91.1612 0103353 350.9077  37.6831 12.30964273727393
Epoch: 2026-06-19T18:41Z
TLE epoch observation values (Epoch: 2026-06-19T18:41:48.439Z)
Latitude
28.06552°
Longitude
-88.30532°
Altitude
1,483.572 km
Speed
7.153 km/s
True Right ascension
06h 40m 35s
True Declination
27° 56' 10"
Sunlit
Object was in daylight at epoch
Visualization orbit readout
Latitude
Unknown
Longitude
Unknown
Altitude
Unknown
Speed
Unknown
Apparent Right ascension
Unknown
Apparent Declination
Unknown
Sunlit
N/A
Visualization observer readout
Local Sidereal Time
00:39:53
Azimuth
Unknown
Elevation
Unknown
Doppler factor
Unknown
Orbital elements
Apogee altitude
1,624.899 km
Perigee altitude
1,461.164 km
Semi-major axis
7,921.169 km
Eccentricity
0.01034
Inclination
73.5918°
RAAN
91.1612°
Arg. of periapsis
350.9077°
True anomaly
38.41453°
Mean anomaly
37.6831°
Eccentric anomaly
38.04807°
Mean motion
3.07864 °/min
Orbital period
116.93 mins
BSTAR
0.00058656
Loading maneuver chart data...
Computing Atmospheric mass density...

Documentation

Showing up to 5 results
|